Regional Weather Roundup
Issued by NWS

Home | Current Version | Previous Version | Graphics & Text | Print | Product List | Glossary Off
Versions: 1 2 3 4 5 6 7 8 9 10 11 12 13 14 15 16 17 18 19 20 21 22 23 24 25 26 27 28 29 30 31 32 33 34 35 36 37 38 39 40 41 42 43 44 45 46 47 48 49 50

000
ASUS43 KMPX 230301
RWRMN
WEATHER ROUNDUP FOR MINNESOTA
NATIONAL WEATHER SERVICE TWIN CITIES/CHANHASSEN MN
1000 PM CDT SAT APR 22 2017


NOTE: "FAIR" INDICATES FEW OR NO CLOUDS BELOW 12,000 FEET WITH NO
SIGNIFICANT WEATHER AND/OR OBSTRUCTIONS TO VISIBILITY. N/A MEANS
CURRENT SKY AND/OR WEATHER CONDITIONS ARE NOT AVAILABLE.

MNZ060>063-068>070-230400-
   Twin Cities Metro

CITY           SKY/WX    TMP DP  RH WIND       PRES   REMARKS
TWIN CITIES    PTCLDY    61  34  36 SW5       30.10S
ST PAUL        CLEAR     57  42  57 CALM      30.10S
CRYSTAL        CLEAR     53  34  48 CALM      30.09S
BLAINE         CLEAR     55  34  44 SW3       30.09S
LAKEVILLE      CLEAR     55  37  50 CALM      30.11S
EDEN PRAIRIE   CLEAR     59  34  39 SW5       30.09F
SOUTH ST PAUL  CLEAR     55  39  55 W3        30.10S
LAKE ELMO      FAIR      52  37  58 CALM      30.10S
$$
MNZ001>005-007-008-013>017-022>024-027-028-230400-
   Northwest Minnesota

CITY           SKY/WX    TMP DP  RH WIND       PRES   REMARKS
BEMIDJI        MOCLDY    39  34  82 N12       30.14R
HALLOCK        CLOUDY    34  27  75 N14       30.25S WCI  24
ROSEAU         CLOUDY    36  28  75 N12       30.22R
WARROAD        CLOUDY    36  28  75 NW9G18    30.21S
THIEF RVR FALL LGT SNOW  33  30  88 N20       30.20R FOG     WCI  21
CROOKSTON      CLOUDY    36  28  75 N16G22    30.22R
FOSSTON        CLOUDY    37  30  75 N15G24    30.16R
DETROIT LAKES  PTCLDY    50  41  71 N8        30.08R
MOORHEAD       CLOUDY    43  36  75 N21G30    30.12S
PARK RAPIDS    MOCLDY    54  38  54 NE12G20   30.06R
MAHNOMEN       LGT RAIN  39  36  87 NE23      30.12R
$$
MNZ006-009>011-018-025>026-230400-
   North Central Minnesota

CITY           SKY/WX    TMP DP  RH WIND       PRES   REMARKS
BAUDETTE       CLOUDY    37  31  78 N13       30.18R
FLAG ISLAND    CLOUDY    36  25  64 N13       30.20S
INTL FALLS     LGT RAIN  38  35  89 NW10      30.15S
WASKISH        CLOUDY    36  34  93 N6        30.17S
BIG FORK       CLOUDY    43  36  75 N8        30.13R
LONGVILLE      CLOUDY    54  41  62 N8        30.07R
GRAND RAPIDS   MOCLDY    47  38  71 N12       30.10R
CRANE LAKE     CLOUDY    37  37 100 N5        30.14R FOG
ORR            CLOUDY    41  34  75 MISG      30.10R
COOK           CLOUDY    43  37  81 N3        30.11S
WALKER         CLOUDY    48  38  69 N10G16    30.09R
$$
MNZ012-019>021-037-230400-
   Northeast Minnesota

CITY           SKY/WX    TMP DP  RH WIND       PRES   REMARKS
DULUTH         PTCLDY    54  41  61 N9        30.04S
ELY            PTCLDY    41  36  81 CALM      30.08F
HIBBING        PTCLDY    44  37  76 N9        30.07S
EVELETH        CLEAR     45  33  65 N7        30.09S
DULUTH HARBOR  PTCLDY    52  41  66 NE9       30.05R
TWO HARBORS    PTCLDY    55  41  58 N5        30.03R
SILVER BAY     CLEAR     50  39  66 N8        30.03S
GRAND MARAIS     N/A     49  37  63 NW17G40   29.99F
G MARAIS ARPRT PTCLDY    39  34  81 NW14G20   30.03F
$$
MNZ029>031-032-039>041-046>048-054>057-064-230400-
   West Central Minnesota

CITY           SKY/WX    TMP DP  RH WIND       PRES   REMARKS
FERGUS FALLS   PTCLDY    54  43  66 N8        30.04R
WHEATON        CLEAR     55  36  47 S9        30.07F
MORRIS         CLEAR     54  39  58 SW10      30.07S
ALEXANDRIA     CLEAR     55  38  52 SW9       30.08S
ELBOW LAKE     FAIR      50  40  69 W7        30.06S
WADENA         CLEAR     54  39  58 NW5       30.04S
GLENWOOD       CLEAR     52  39  62 S6        30.09S
APPLETON       CLEAR     57  37  47 SW6       30.09R
BENSON         CLEAR     57  34  41 W6        30.10S
ORTONVILLE     CLEAR     57  37  47 SW5       30.08S
MADISON        CLEAR     55  41  58 SW7       30.10R
WILLMAR        FAIR      54  37  54 SW5       30.11S
$$
MNZ033>034-036-042>043-049>051-058-059-230400-
   Central Minnesota

CITY           SKY/WX    TMP DP  RH WIND       PRES   REMARKS
ST CLOUD       CLEAR     53  39  59 S5        30.08S
SAUK CENTRE    FAIR      51  39  61 S5        30.08F
PAYNESVILLE    CLEAR     50  37  61 CALM      30.10S
AITKIN         PTCLDY    57  34  41 CALM      30.03F
PINE RIVER     MOCLDY    55  43  62 N9        30.08S
BRAINERD       PTCLDY    52  36  54 S5        30.05F
STAPLES        PTCLDY    50  37  62 S5        30.04F
LONG PRAIRIE   MOCLDY    52  37  58 S3        30.07F
LITTLE FALLS   PTCLDY    50  36  57 CALM      30.08S
LITCHFIELD     CLEAR     55  39  54 CALM      30.11R
BUFFALO        CLEAR     55  42  63 CALM      30.11S
MAPLE LAKE     CLEAR     53  41  64 CALM      30.11R
HUTCHINSON     CLOUDY    53  44  71 CALM      30.12R
$$
MNZ037-044-045-052-053-230400-
   East Central Minnesota

CITY           SKY/WX    TMP DP  RH WIND       PRES   REMARKS
PRINCETON      CLEAR     50  37  62 CALM      30.09R
MORA           CLEAR     50  37  62 CALM      30.10R
CAMBRIDGE      CLEAR     52  37  58 CALM      30.07S
RUSH CITY      MOCLDY    54  34  47 CALM      30.08S
MOOSE LAKE     CLEAR     54  34  47 CALM      30.03F
HINCKLEY       FAIR      50  37  62 SW5       30.07S
CLOQUET        MOCLDY    55  37  50 NW5       30.05S
MCGREGOR       MOCLDY    55  37  50 NW8       30.05S
$$
MNZ071>073-080-081-089-090-097-098-230400-
   Southwest Minnesota

CITY           SKY/WX    TMP DP  RH WIND       PRES   REMARKS
MONTEVIDEO     CLEAR     57  36  44 W7        30.11S
GRANITE FALLS  CLEAR     57  37  47 SW7       30.13R
CANBY          CLEAR     56  39  51 CALM      30.12S
MARSHALL       CLEAR     54  36  50 SW8       30.12S
REDWOOD FALLS  CLEAR     59  32  36 W7        30.11S
OLIVIA         CLEAR     52  36  54 SW6       30.11S
PIPESTONE      CLEAR     52  37  58 CALM      30.15R
WINDOM         CLEAR     55  36  47 CALM      30.14S
WORTHINGTON    CLEAR     53  36  52 SW8       30.16S
JACKSON        CLEAR     55  32  41 CALM      30.15F
TRACY          CLEAR     54  39  56 SW8       30.14R
SLAYTON        CLEAR     51  37  58 SW9       30.14F
$$
MNZ065>067-074>077-082>085-091>093-230400-
   South Central Minnesota

CITY           SKY/WX    TMP DP  RH WIND       PRES   REMARKS
MANKATO        CLEAR     60  35  39 SW6       30.12F
NEW ULM        CLEAR     55  34  44 SW5       30.12S
ST JAMES       CLEAR     54  39  58 SW6       30.14S
FAIRMONT       CLEAR     59  35  40 SW6       30.15S
GLENCOE        CLEAR     57  41  56 S5        30.10S
FARIBAULT      CLEAR     55  39  54 S3        30.12F
OWATONNA       CLEAR     55  34  44 S7        30.13F
WASECA         CLEAR     52  37  58 S3        30.14S
ALBERT LEA     CLEAR     52  39  62 CALM      30.15S
$$
MNZ078>079-086>088-094>096-230400-
   Southeast Minnesota

CITY           SKY/WX    TMP DP  RH WIND       PRES   REMARKS
ROCHESTER      CLEAR     53  38  56 SW7       30.15S
RED WING       CLEAR     50  39  66 CALM      30.10F
STANTON        CLEAR     52  40  62 S6        30.10F
DODGE CENTER   CLEAR     52  39  62 SW3       30.14S
WINONA         CLEAR     54  43  66 CALM      30.14S
AUSTIN         CLEAR     52  37  58 CALM      30.15S
PRESTON        CLEAR     54  31  42 SW5       30.16R
$$
ABBREVIATIONS USED IN REMARKS
   TC - TEMPERATURES IN CELSIUS
  WCI - WIND CHILL INDEX
   HX - HEAT INDEX
  VSB - VISIBILITY
$$



USA.gov is the U.S. government's official web portal to all federal, state and local government web resources and services.